TimeEST,TemperatureF,Dew PointF,Humidity,Sea Level PressureIn,VisibilityMPH,Wind Direction,Wind SpeedMPH,Gust SpeedMPH,PrecipitationIn,Events,Conditions,WindDirDegrees,DateUTC
12:53 AM,73.9,62.1,66,30.18,10.0,East,17.3,23.0,0.00,,Mostly Cloudy,80,2012-12-02 05:53:00
1:53 AM,73.9,63.0,68,30.17,10.0,East,13.8,-,N/A,,Mostly Cloudy,80,2012-12-02 06:53:00
2:53 AM,73.9,63.0,68,30.17,10.0,East,11.5,-,N/A,,Mostly Cloudy,80,2012-12-02 07:53:00
3:53 AM,73.9,61.0,64,30.16,10.0,East,15.0,23.0,N/A,,Partly Cloudy,80,2012-12-02 08:53:00
4:53 AM,73.0,62.1,68,30.16,10.0,ENE,13.8,-,N/A,,Partly Cloudy,70,2012-12-02 09:53:00
5:53 AM,73.9,61.0,64,30.17,10.0,ENE,13.8,19.6,N/A,,Scattered Clouds,70,2012-12-02 10:53:00
6:53 AM,73.9,62.1,66,30.19,10.0,East,13.8,-,N/A,,Mostly Cloudy,80,2012-12-02 11:53:00
7:53 AM,75.0,62.1,64,30.21,10.0,ENE,10.4,-,N/A,,Mostly Cloudy,70,2012-12-02 12:53:00
8:53 AM,75.9,62.1,62,30.22,10.0,East,15.0,-,N/A,,Scattered Clouds,90,2012-12-02 13:53:00
9:53 AM,78.1,63.0,60,30.24,10.0,East,13.8,-,N/A,,Mostly Cloudy,80,2012-12-02 14:53:00
10:53 AM,79.0,63.0,58,30.23,10.0,East,17.3,-,N/A,,Mostly Cloudy,80,2012-12-02 15:53:00
11:53 AM,78.1,62.1,58,30.21,10.0,East,16.1,-,N/A,,Scattered Clouds,80,2012-12-02 16:53:00
12:53 PM,79.0,63.0,58,30.19,10.0,East,19.6,-,N/A,,Scattered Clouds,80,2012-12-02 17:53:00
1:53 PM,78.1,63.0,60,30.17,10.0,East,18.4,-,N/A,,Scattered Clouds,90,2012-12-02 18:53:00
2:53 PM,79.0,62.1,56,30.17,10.0,East,17.3,23.0,N/A,,Scattered Clouds,90,2012-12-02 19:53:00
3:53 PM,78.1,60.1,54,30.16,10.0,East,17.3,-,N/A,,Scattered Clouds,90,2012-12-02 20:53:00
4:53 PM,75.9,61.0,60,30.17,10.0,East,15.0,20.7,N/A,,Mostly Cloudy,80,2012-12-02 21:53:00
5:53 PM,75.0,62.1,64,30.17,10.0,East,12.7,-,N/A,,Mostly Cloudy,90,2012-12-02 22:53:00
6:53 PM,75.0,62.1,64,30.19,10.0,East,13.8,-,N/A,,Mostly Cloudy,90,2012-12-02 23:53:00
7:53 PM,75.0,61.0,62,30.19,10.0,East,16.1,23.0,N/A,,Mostly Cloudy,80,2012-12-03 00:53:00
8:53 PM,75.0,62.1,64,30.20,10.0,East,16.1,-,N/A,,Mostly Cloudy,90,2012-12-03 01:53:00
9:53 PM,73.9,62.1,66,30.20,10.0,East,16.1,21.9,N/A,,Scattered Clouds,90,2012-12-03 02:53:00
10:53 PM,73.9,62.1,66,30.21,10.0,East,17.3,-,N/A,,Mostly Cloudy,90,2012-12-03 03:53:00
11:53 PM,73.9,62.1,66,30.20,10.0,East,12.7,-,N/A,,Mostly Cloudy,80,2012-12-03 04:53:00